Regional Weather Roundup
Issued by NWS

Home | Current Version | Previous Version | Graphics & Text | Print | Product List | Glossary On
Versions: 1 2 3 4 5 6 7 8 9 10 11 12 13 14 15 16 17 18 19 20 21 22 23 24 25 26 27 28 29 30 31 32 33 34 35 36 37 38 39 40 41 42 43 44 45 46 47 48 49 50
000
ASUS45 KBOI 222310
RWRID

IDAHO REGIONAL WEATHER ROUNDUP
NATIONAL WEATHER SERVICE BOISE ID
400 PM MST WED FEB 22 2017

NOTE: "FAIR" INDICATES FEW OR NO CLOUDS BELOW 12000 FEET
WITH NO SIGNIFICANT WEATHER AND/OR OBSTRUCTIONS TO VISIBILITY

IDZ012-014-230000-
SOUTHWEST IDAHO


CITY           SKY/WX    TMP DP  RH WIND       PRES   REMARKS
BOISE          CLOUDY    39  29  67 W5        29.89F
CALDWELL       CLOUDY    40  28  62 W15       29.92F WCI  32
MOUNTAIN HOME  CLOUDY    39  30  69 NW21      29.87S WCI  29
$$

IDZ016-017-230000-
SOUTHCENTRAL IDAHO


CITY           SKY/WX    TMP DP  RH WIND       PRES   REMARKS
BURLEY         CLOUDY    36  30  79 N7        29.83S WCI  30
JEROME           N/A    N/A N/A N/A MISG      29.83F
TWIN FALLS     CLOUDY    35  29  78 E8        29.82F WCI  29
$$

IDZ019>023-230000-
SOUTHEAST IDAHO


CITY           SKY/WX    TMP DP  RH WIND       PRES   REMARKS
IDAHO FALLS    MOSUNNY   36  24  62 CALM      29.85F
POCATELLO      MOSUNNY   39  23  52 NW6       29.85F WCI  35
REXBURG        CLOUDY    37  19  48 SW8       29.84F WCI  31
$$

IDZ006-010-011-018-031-032-230000-
CENTRAL IDAHO MOUNTAINS


CITY           SKY/WX    TMP DP  RH WIND       PRES   REMARKS
MCCALL         CLOUDY    30  24  78 W9        29.82F WCI  22
HAILEY         CLOUDY    30  19  64 SE6       29.83F WCI  24
STANLEY          N/A     27  13  55 CALM      29.78F
SALMON         CLOUDY    39  23  52 N9        29.82F WCI  33
CHALLIS        MOSUNNY   35  18  49 N6        29.81F WCI  30
$$

IDZ002-004-006-007-026-230000-
NORTHERN IDAHO


CITY           SKY/WX    TMP DP  RH WIND       PRES   REMARKS
LEWISTON       CLOUDY    44  28  53 NW12      30.03F
LOWELL           N/A     41  34  76 S6        30.03F
COEUR D`ALENE  CLOUDY    37  31  78 S6        30.02S WCI  32
MULLAN PASS    CLOUDY    24  23  96 VRB5      29.86R FOG     WCI  18
$$



USA.gov is the U.S. government's official web portal to all federal, state and local government web resources and services.